Location: Most
(50.5133°N, 13.6207°E)
Time: 14:48:11
(UTC+02:00)

ISS - Visible Passes

Search period start: 20 September 2017 00:00
Search period end: 30 September 2017 00:00
Orbit: 401 x 407 km, 51.6° (Epoch: 20 September)

Date Brightness Start Highest point End Pass type
(mag) Time Alt. Az. Time Alt. Az. Time Alt. Az.
20 Sep -0.9 04:16:11 11° SE 04:16:11 11° SE 04:16:21 10° SE visible
20 Sep -1.7 05:48:54 12° SW 05:49:02 12° SW 05:50:27 10° SSW visible
26 Sep -2.3 20:27:40 10° SSW 20:29:37 21° SSE 20:29:37 21° SSE visible
27 Sep -1.9 19:36:12 10° S 19:38:07 15° SE 19:39:44 11° ESE visible
27 Sep -2.0 21:10:52 10° WSW 21:12:24 25° SW 21:12:24 25° SW visible
28 Sep -3.3 20:18:39 10° SW 20:21:45 40° SSE 20:22:21 36° ESE visible
28 Sep -0.6 21:54:50 10° W 21:55:00 11° W 21:55:00 11° W visible
29 Sep -2.6 19:26:39 10° SSW 19:29:27 26° SSE 19:32:09 11° E visible
29 Sep -2.9 21:02:23 10° WSW 21:04:48 47° WSW 21:04:48 47° WSW visible
